Hourly Weather Rutkowo

Today, 22 April, Thursday

Time Temperature Precipitation Wind Pressure Humidity
00:00 +5°C° 0.1 mm 3 mps 742 mmHg 85%
01:00 +4°C° 0 mm 4 mps 742 mmHg 86%
02:00 +4°C° 0.2 mm 3 mps 742 mmHg 87%
03:00 +3°C° 0.2 mm 3 mps 742 mmHg 89%
04:00 +3°C° 0.2 mm 3 mps 742 mmHg 90%
05:00 +3°C° 0 mm 4 mps 742 mmHg 85%
06:00 +3°C° 0 mm 4 mps 742 mmHg 80%
07:00 +3°C° 0 mm 5 mps 742 mmHg 75%
08:00 +3°C° 0.1 mm 5 mps 743 mmHg 71%
09:00 +4°C° 0.1 mm 6 mps 743 mmHg 66%
10:00 +5°C° 0.1 mm 7 mps 743 mmHg 61%
11:00 +5°C° 0.2 mm 7 mps 743 mmHg 59%
12:00 +6°C° 0.2 mm 7 mps 743 mmHg 57%
13:00 +6°C° 0.2 mm 7 mps 743 mmHg 55%
14:00 +5°C° 0.3 mm 7 mps 743 mmHg 57%
15:00 +5°C° 0.3 mm 7 mps 743 mmHg 60%
16:00 +4°C° 0.3 mm 7 mps 743 mmHg 62%
17:00 +3°C° 0 mm 6 mps 744 mmHg 64%
18:00 +2°C° 0 mm 5 mps 744 mmHg 66%
19:00 +1°C° 0 mm 4 mps 744 mmHg 69%
20:00 +1°C° 0 mm 5 mps 744 mmHg 71%
21:00 +1°C° 0 mm 5 mps 744 mmHg 74%
22:00 0°C° 0 mm 5 mps 744 mmHg 77%
23:00 0°C° 0 mm 5 mps 745 mmHg 80%

Tomorrow, 23 April, Friday

Time Temperature Precipitation Wind Pressure Humidity
00:00 0°C° 0 mm 5 mps 745 mmHg 83%
01:00 0°C° 0 mm 5 mps 745 mmHg 86%
02:00 0°C° 0.1 mm 5 mps 745 mmHg 87%
03:00 -1°C° 0.1 mm 4 mps 745 mmHg 88%
04:00 -1°C° 0.1 mm 4 mps 745 mmHg 89%
05:00 0°C° 0 mm 5 mps 746 mmHg 82%
06:00 +1°C° 0 mm 5 mps 746 mmHg 76%
07:00 +2°C° 0 mm 6 mps 746 mmHg 69%
08:00 +3°C° 0.1 mm 6 mps 746 mmHg 62%
09:00 +4°C° 0.1 mm 6 mps 747 mmHg 55%
10:00 +5°C° 0.1 mm 6 mps 747 mmHg 49%
11:00 +5°C° 0.1 mm 6 mps 747 mmHg 49%
12:00 +5°C° 0.1 mm 6 mps 747 mmHg 49%
13:00 +4°C° 0.1 mm 6 mps 748 mmHg 50%
14:00 +4°C° 0 mm 6 mps 748 mmHg 48%
15:00 +4°C° 0 mm 6 mps 748 mmHg 46%
16:00 +4°C° 0 mm 6 mps 748 mmHg 45%
17:00 +2°C° 0 mm 5 mps 748 mmHg 51%
18:00 +1°C° 0 mm 5 mps 748 mmHg 57%
19:00 0°C° 0 mm 4 mps 749 mmHg 64%
20:00 0°C° 0 mm 3 mps 749 mmHg 69%
21:00 -1°C° 0 mm 3 mps 749 mmHg 74%
22:00 -2°C° 0 mm 3 mps 749 mmHg 79%
23:00 -2°C° 0 mm 3 mps 749 mmHg 79%

Day after tomorrow, 24 April, Saturday

Time Temperature Precipitation Wind Pressure Humidity
00:00 -2°C° 0 mm 3 mps 749 mmHg 79%
01:00 -2°C° 0 mm 3 mps 749 mmHg 78%
02:00 -2°C° 0 mm 3 mps 749 mmHg 77%
03:00 -2°C° 0 mm 3 mps 749 mmHg 75%
04:00 -2°C° 0 mm 3 mps 749 mmHg 73%
05:00 0°C° 0 mm 3 mps 749 mmHg 67%
06:00 0°C° 0 mm 4 mps 749 mmHg 61%
07:00 +2°C° 0 mm 5 mps 749 mmHg 54%
08:00 +3°C° 0 mm 5 mps 749 mmHg 48%
09:00 +4°C° 0 mm 6 mps 749 mmHg 43%
10:00 +7°C° 0 mm 6 mps 749 mmHg 37%
11:00 +7°C° 0 mm 6 mps 749 mmHg 38%
12:00 +6°C° 0 mm 7 mps 749 mmHg 38%
13:00 +5°C° 0 mm 7 mps 749 mmHg 39%
14:00 +5°C° 0 mm 7 mps 749 mmHg 41%
15:00 +4°C° 0 mm 6 mps 749 mmHg 44%
16:00 +4°C° 0 mm 6 mps 749 mmHg 47%
17:00 +2°C° 0 mm 5 mps 750 mmHg 52%
18:00 +1°C° 0 mm 4 mps 750 mmHg 58%
19:00 0°C° 0 mm 3 mps 750 mmHg 64%
20:00 -1°C° 0 mm 3 mps 750 mmHg 69%
21:00 -2°C° 0 mm 2 mps 750 mmHg 74%
22:00 -3°C° 0 mm 2 mps 750 mmHg 79%
23:00 -3°C° 0 mm 2 mps 750 mmHg 80%

25 April, Sunday

Time Temperature Precipitation Wind Pressure Humidity
00:00 -3°C° 0 mm 2 mps 750 mmHg 80%
01:00 -3°C° 0 mm 2 mps 750 mmHg 80%
02:00 -3°C° 0 mm 2 mps 750 mmHg 79%
03:00 -3°C° 0 mm 2 mps 749 mmHg 78%
04:00 -2°C° 0 mm 2 mps 749 mmHg 77%
05:00 -1°C° 0 mm 3 mps 749 mmHg 70%
06:00 0°C° 0 mm 3 mps 749 mmHg 63%
07:00 +1°C° 0 mm 4 mps 749 mmHg 55%
08:00 +3°C° 0.1 mm 4 mps 749 mmHg 51%
09:00 +3°C° 0.1 mm 5 mps 748 mmHg 46%
10:00 +5°C° 0.1 mm 5 mps 748 mmHg 42%
11:00 +4°C° 0.2 mm 6 mps 748 mmHg 44%
12:00 +4°C° 0.2 mm 6 mps 748 mmHg 46%
13:00 +4°C° 0.2 mm 6 mps 748 mmHg 48%
14:00 +4°C° 0 mm 6 mps 748 mmHg 47%
15:00 +3°C° 0 mm 6 mps 748 mmHg 47%
16:00 +3°C° 0 mm 6 mps 748 mmHg 47%
17:00 +2°C° 0 mm 5 mps 748 mmHg 54%
18:00 0°C° 0 mm 4 mps 749 mmHg 61%
19:00 -1°C° 0 mm 4 mps 749 mmHg 68%
20:00 -1°C° 0 mm 3 mps 749 mmHg 72%
21:00 -2°C° 0 mm 3 mps 749 mmHg 76%
22:00 -2°C° 0 mm 2 mps 748 mmHg 80%
23:00 -3°C° 0 mm 2 mps 748 mmHg 81%

26 April, Monday

Time Temperature Precipitation Wind Pressure Humidity
00:00 -3°C° 0 mm 2 mps 748 mmHg 82%
01:00 -4°C° 0 mm 3 mps 747 mmHg 83%
02:00 -4°C° 0 mm 3 mps 747 mmHg 80%
03:00 -4°C° 0 mm 3 mps 747 mmHg 76%
04:00 -2°C° 0 mm 3 mps 746 mmHg 73%
05:00 -1°C° 0 mm 3 mps 746 mmHg 69%
06:00 0°C° 0 mm 4 mps 746 mmHg 65%
07:00 +1°C° 0 mm 4 mps 746 mmHg 62%
08:00 +1°C° 0.3 mm 5 mps 746 mmHg 69%
09:00 +1°C° 0.3 mm 5 mps 746 mmHg 77%
10:00 +2°C° 0.3 mm 5 mps 746 mmHg 84%
11:00 +2°C° 0.2 mm 5 mps 746 mmHg 78%
12:00 +3°C° 0.2 mm 6 mps 746 mmHg 73%
13:00 +3°C° 0.2 mm 6 mps 746 mmHg 67%
14:00 +3°C° 0.1 mm 6 mps 746 mmHg 66%
15:00 +3°C° 0.1 mm 6 mps 747 mmHg 66%
16:00 +3°C° 0.1 mm 5 mps 747 mmHg 65%
17:00 +2°C° 0 mm 5 mps 747 mmHg 71%
18:00 +1°C° 0 mm 4 mps 747 mmHg 76%
19:00 +1°C° 0 mm 3 mps 747 mmHg 82%
20:00 0°C° 0 mm 3 mps 747 mmHg 86%
21:00 -1°C° 0 mm 2 mps 747 mmHg 91%
22:00 -2°C° 0 mm 2 mps 747 mmHg 95%
23:00 -2°C° 0 mm 2 mps 747 mmHg 95%

27 April, Tuesday

Time Temperature Precipitation Wind Pressure Humidity
00:00 -1°C° 0 mm 2 mps 747 mmHg 96%
01:00 -1°C° 0 mm 2 mps 747 mmHg 96%
02:00 -1°C° 0 mm 2 mps 747 mmHg 95%
03:00 +1°C° 0 mm 2 mps 747 mmHg 95%
04:00 +2°C° 0 mm 2 mps 747 mmHg 94%
05:00 +2°C° 0 mm 2 mps 747 mmHg 93%
06:00 +3°C° 0 mm 2 mps 747 mmHg 91%
07:00 +3°C° 0 mm 2 mps 747 mmHg 90%
08:00 +4°C° 0.1 mm 2 mps 747 mmHg 84%
09:00 +6°C° 0.1 mm 1 mps 747 mmHg 79%
10:00 +6°C° 0.1 mm 1 mps 747 mmHg 73%
11:00 +7°C° 0 mm 1 mps 747 mmHg 69%
12:00 +8°C° 0 mm 1 mps 746 mmHg 65%
13:00 +8°C° 0 mm 1 mps 746 mmHg 61%
14:00 +9°C° 0 mm 1 mps 746 mmHg 61%
15:00 +9°C° 0 mm 1 mps 746 mmHg 60%
16:00 +9°C° 0 mm 1 mps 745 mmHg 59%
17:00 +8°C° 0 mm 1 mps 745 mmHg 63%
18:00 +7°C° 0 mm 1 mps 745 mmHg 68%
19:00 +5°C° 0 mm 2 mps 745 mmHg 72%
20:00 +5°C° 0 mm 2 mps 745 mmHg 75%
21:00 +4°C° 0 mm 2 mps 744 mmHg 79%
22:00 +4°C° 0 mm 2 mps 744 mmHg 82%
23:00 +3°C° 0 mm 2 mps 744 mmHg 85%
Show more